Weather Roundup
Issued by NWS Springfield, MO

Home | Current Version | Previous Version | Text Only | Print | Product List | Glossary On
Versions: 1 2 3 4 5 6 7 8 9 10 11 12 13 14 15 16 17 18 19 20 21 22 23 24 25 26 27 28 29 30 31 32 33 34 35 36 37 38 39 40 41 42 43 44 45 46 47 48 49 50
000
NZUS99 KSGF 280907
HRRSGF

HOURLY WEATHER
NATIONAL WEATHER SERVICE SPRINGFIELD MO
400 AM CDT THU APR 28 2016

......SGF CWA......

CITY           SKY/WX    TMP DP  RH WIND       PRES   REMARKS
SPRINGFIELD    CLEAR     50  44  80 W7        29.81R
JOPLIN         CLEAR     49  44  83 SW6       29.83R
WEST PLAINS    CLEAR     50  46  86 MISG      29.80S
ROLLA          CLEAR     49  47  93 SW8       29.76R
OSAGE BEACH    CLEAR     54  43  66 SW6       29.77S

......SURROUNDING SGF CWA......

CITY           SKY/WX    TMP DP  RH WIND       PRES   REMARKS
CHANUTE        CLEAR     49  40  71 W10       29.82R
PARSONS        CLEAR     48  43  82 SW7       29.85R
COFFEYVILLE    CLEAR     49  42  77 SW7       29.86R
EMPORIA        CLEAR     45  37  73 NW13G21   29.80R
GROVE OK       CLEAR     54  45  71 CALM      29.86R
ROGERS AR      CLEAR     52  48  86 W3        29.85R
SILOAM SPRINGS CLEAR     48  39  71 CALM      29.86R
HARRISON AR    CLEAR     54  48  80 W6        29.83R
NEAR YELLVILLE CLEAR    N/A N/A N/A W3        29.78R

......KANSAS AND MISSOURI......

CITY           SKY/WX    TMP DP  RH WIND       PRES   REMARKS
KANSAS CTY INT PTCLDY    46  39  76 W13       29.74R
DOWNTOWN KC    CLOUDY    50  39  66 W13       29.74R
COLUMBIA       CLEAR     51  51 100 S6        29.74S
SEDALIA        CLEAR     54  46  74 W7        29.76R
ST JOSEPH      CLOUDY    48  41  76 SW15G22   29.71R
ST LOUIS       CLEAR     59  51  75 W3        29.76R
SPIRIT OF STL  CLEAR     53  52  96 CALM      29.75R
KIRKSVILLE     CLOUDY    51  49  92 S3        29.71R
WICHITA        CLOUDY    47  41  80 SW8       29.87R
TOPEKA         CLOUDY    46  37  71 W12       29.77R
OLATHE         PTCLDY    45  38  76 W10       29.76R

......TENNESSEE......

CITY           SKY/WX    TMP DP  RH WIND       PRES   REMARKS
MEMPHIS        CLEAR     68  64  87 SW7       29.78R
NASHVILLE      MOCLDY    67  62  84 SW7       29.80R

......ARKANSAS.......

CITY           SKY/WX    TMP DP  RH WIND       PRES   REMARKS
FAYETTEVILLE   CLEAR     48  48 100 CALM      29.85R
FT SMITH       CLEAR     56  51  84 SW3       29.83R
LITTLE ROCK    CLEAR     67  54  63 NW10      29.80R

......OKLAHOMA.......

CITY           SKY/WX    TMP DP  RH WIND       PRES   REMARKS
TULSA          CLEAR     53  49  86 CALM      29.85R
PONCA CITY     CLEAR     47  44  90 CALM      29.88R
MCALESTER      PTCLDY    56  52  86 N7        29.84R
OKLAHOMA CITY  PTCLDY    53  45  74 NE8       29.85R

......IOWA............

CITY           SKY/WX    TMP DP  RH WIND       PRES   REMARKS
DES MOINES     CLOUDY    48  41  76 SW3       29.68R
QUAD CITIES    CLOUDY    49  46  90 E6        29.71R FOG

......ILLINOIS........

CITY           SKY/WX    TMP DP  RH WIND       PRES   REMARKS
QUINCY         CLEAR     50  49  96 S5        29.71S
CHICAGO        LGT RAIN  43  42  97 NE12      29.85R FOG




USA.gov is the U.S. government's official web portal to all federal, state and local government web resources and services.